This demonstration page uses our WeatherBlox Daily Observations layout. Learn more.

Left ArrowRight Arrow

Hourly Observations for April 6, 2015

Temp ( °F °C ) Dew Point ( °F °C ) Humidity (%) Winds ( mph kmh ) Pressure ( in mb ) Visibility ( mi km ) Precip ( " mm )
12:53 am 00:53 Clear 43 6.1 30 -1.1 60 60 ENE 3 6 30.14 1021 10 16.0934 0 0
1:53 am 01:53 Clear 42 5.6 35 1.7 76 76 Calm 30.13 1020 10 16.0934 0 0
2:53 am 02:53 Clear 40 4.4 34 1.1 79 79 Calm 30.13 1020 10 16.0934 0 0
3:53 am 03:53 Mostly Clear 40 4.4 32 0 73 73 Calm 30.13 1020 10 16.0934 0 0
4:53 am 04:53 Cloudy 46 7.8 34 1.1 63 63 E 3 6 30.12 1020 10 16.0934 0 0
5:53 am 05:53 Cloudy 47 8.3 34 1.1 61 61 ENE 3 6 30.12 1020 10 16.0934 0 0
6:53 am 06:53 Cloudy 48 8.9 36 2.2 63 63 E 6 9 30.12 1020 10 16.0934 0 0.0254
7:53 am 07:53 Cloudy 50 10 35 1.7 57 57 E 6 9 30.13 1020 10 16.0934 0 0
8:53 am 08:53 Cloudy 54 12.2 35 1.7 49 49 Calm 30.13 1020 10 16.0934 0 0
9:53 am 09:53 Cloudy 59 15 36 2.2 42 42 S 5 7 30.12 1020 10 16.0934 0 0
10:53 am 10:53 Cloudy 63 17.2 38 3.3 40 40 SSW 6 9 30.12 1020 10 16.0934 0 0
11:53 am 11:53 Cloudy 64 17.8 39 3.9 40 40 SW 7 11 30.12 1020 10 16.0934 0 0.0254
12:53 pm 12:53 Cloudy 66 18.9 42 5.6 42 42 SW 8 13 30.11 1020 10 16.0934 0 0
1:53 pm 13:53 Cloudy 68 20 43 6.1 40 40 VRB 6 9 30.09 1019 10 16.0934 0 0
2:53 pm 14:53 Cloudy 69 20.6 43 6.1 39 39 SSW 8 13 30.07 1018 10 16.0934 0 0
3:53 pm 15:53 Cloudy 69 20.6 45 7.2 42 42 S 10 17 30.05 1018 10 16.0934 0 0.0254
4:39 pm 16:39 Cloudy with Nearby Thunderstorms 67 19.4 46 7.8 47 47 SSW 8 13 30.06 1018 10 16.0934 0 0.0254
4:50 pm 16:50 Cloudy with Nearby Thunderstorms 61 16 54 12 77 77 SW 9 15 30.06 1018 1.75 2.816345 0.05 1.27
4:53 pm 16:53 Cloudy with Nearby Thunderstorms 59 15 54 12.2 83 83 SW 7 11 30.07 1018 0.75 1.207005 0.11 2.794
4:57 pm 16:57 Cloudy with Rain 59 15 54 12.2 83 83 Calm 30.06 1018 1 1.60934 0 0.0254
5:03 pm 17:03 Cloudy with Light Rain 59 15 54 12.2 83 83 Calm 30.06 1018 3 4.82802 0 0.0254
5:53 pm 17:53 Cloudy with Light Rain 59 15 56 13.3 90 90 Calm 30.05 1018 8 12.87472 0.02 0.508
6:53 pm 18:53 Cloudy with Light Rain 58 14.4 57 13.9 97 97 SE 3 6 30.04 1017 9 14.48406 0.01 0.254
7:53 pm 19:53 Cloudy 58 14.4 56 13.3 93 93 Calm 30.04 1017 10 16.0934 0.01 0.254
8:53 pm 20:53 Mostly Cloudy with Mist and Fog 56 13.3 55 12.8 97 97 Calm 30.05 1018 4 6.43736 0 0
9:27 pm 21:27 Mostly Cloudy with Mist and Fog 54 12.2 54 12.2 100 100 Calm 30.09 1019 1.75 2.816345 0 0
9:33 pm 21:33 Mostly Cloudy with Mist and Fog 53 11.7 53 11.7 100 100 Calm 30.09 1019 0.75 1.207005 0 0
9:53 pm 21:53 Partly Cloudy with Fog 53 11.7 53 11.7 100 100 Calm 30.06 1018 0.5 0.80467 0 0
10:06 pm 22:06 Partly Cloudy with Fog 52 11.1 52 11.1 100 100 Calm 30.09 1019 0.25 0.402335 0 0
10:40 pm 22:40 Mostly Cloudy with Mist and Fog 52 11.1 52 11.1 100 100 Calm 30.09 1019 1.75 2.816345 0 0
10:53 pm 22:53 Mostly Cloudy with Mist and Fog 52 11.1 52 11.1 100 100 Calm 30.07 1018 2 3.21868 0 0
10:57 pm 22:57 Cloudy with Mist and Fog 52 11.1 52 11.1 100 100 Calm 30.09 1019 1.5 2.41401 0 0
11:06 pm 23:06 Cloudy with Mist and Fog 53 11.7 53 11.7 100 100 E 3 6 30.09 1019 2 3.21868 0 0
11:15 pm 23:15 Cloudy with Mist and Fog 53 11.7 53 11.7 100 100 Calm 30.09 1019 3 4.82802 0 0
11:53 pm 23:53 Cloudy with Mist and Fog 54 12.2 54 12.2 100 100 Calm 30.08 1019 3 4.82802 0 0

Powered by AerisWeather